Simultaneous Nadir Overpasses (SNOs) Predictions

Prediction of SNOs between GOES-15 and TERRA Satellite Orbit:

Table of predicted SNOs for the next 14.0 days since TLE Epoch: 6/21/2014
Index Date Time (GOES-15) GOES-15 Lat,Lon TERRA Lat,Lon Distance(km) Time Diff (sec)
1 06/21/2014 19:19:30 -0.06,-135.46 -0.65,-132.73 309.81 80
2 06/22/2014 07:43:33 0.04,-135.45 -0.46,-137.92 280.28 80
3 06/24/2014 07:28:40 0.05,-135.45 0.15,-134.96 56.34 80
4 06/26/2014 07:16:28 0.05,-135.45 0.77,-131.99 392.48 80
5 06/26/2014 19:40:22 -0.04,-135.45 0.32,-137.15 193.26 80
6 06/28/2014 19:25:29 -0.05,-135.44 -0.31,-134.18 142.35 80
7 06/29/2014 07:49:33 0.03,-135.43 -0.79,-139.37 447.86 80
8 06/30/2014 19:13:16 -0.05,-135.42 -0.94,-131.22 477.62 80
9 07/01/2014 07:37:20 0.04,-135.42 -0.15,-136.41 112.69 80
10 07/03/2014 07:22:26 0.04,-135.40 0.44,-133.44 222.14 80
11 07/03/2014 19:46:21 -0.02,-135.39 0.65,-138.59 364.10 80




NCC Satellite Simultaneous Nadir Overpasses (SNOs) Prediction Service
